Weather History for KSDA - January, 2013

Change the Weather History Date:

Wednesday, January 16, 2013

  Actual Average Record
Temperature  
Mean Temperature 38 °F -  
Max Temperature 55 °F 32 °F 62 °F (2015)
Min Temperature 21 °F 12 °F -19 °F (1977)
Degree Days  
Heating Degree Days 27    
Moisture  
Dew Point 24 °F    
Average Humidity 60    
Maximum Humidity 75    
Minimum Humidity 38    
Precipitation  
Precipitation 0.00 in - - ()
Sea Level Pressure  
Sea Level Pressure 30.04 in    
Wind  
Wind Speed 7 mph (West)    
Max Wind Speed 15 mph    
Max Gust Speed 20 mph    
Visibility 10 miles    
Events      
Averages and records for this station are not official NWS values.
T = Trace of Precipitation, MM = Missing Value Source: NWS Daily Summary

Daily Weather History Graph

Daily Weather History Graph

Search for Another Location

Airport or City:

Trip Planner

Search our weather history database for the weather conditions in past years. The results will help you decide how hot, cold, wet, or windy it might be!

Date:

Astronomy

Jan. 16, 2013 Rise Set
Actual Time 7:43 AM CST 5:20 PM CST
Civil Twilight 7:13 AM CST 5:50 PM CST
Nautical Twilight 6:39 AM CST 6:24 PM CST
Astronomical Twilight 6:06 AM CST 6:56 PM CST
Moon 10:17 AM CST (1/16) 11:15 PM CST (1/16)
Length of Visible Light 10h 37m
Length of Day
9h 37m
Waxing Crescent, 28% of the Moon is Illuminated
Jan 16
Waxing Crescent
Jan 18
First Quarter
Jan 26
Full
Feb 3
Last Quarter
Feb 10
New

Hourly Weather History & Observations

Time (CST) Temp. Windchill Dew Point Humidity Pressure Visibility Wind Dir Wind Speed Gust Speed Precip Events Conditions
12:15 AM 21.2 °F 13.6 °F 12.2 °F 68% 30.09 in 10.0 mi SW 5.8 mph - N/A   Scattered Clouds
12:35 AM 21.2 °F 16.4 °F 12.2 °F 68% 30.08 in 10.0 mi WSW 3.5 mph - N/A   Scattered Clouds
12:55 AM 23.0 °F 18.4 °F 14.0 °F 68% 30.08 in 10.0 mi SW 3.5 mph - N/A   Scattered Clouds
1:15 AM 21.2 °F 16.4 °F 12.2 °F 68% 30.07 in 10.0 mi WSW 3.5 mph - N/A   Scattered Clouds
1:35 AM 21.2 °F 16.4 °F 12.2 °F 68% 30.06 in 10.0 mi WSW 3.5 mph - N/A   Scattered Clouds
1:55 AM 21.2 °F 14.9 °F 12.2 °F 68% 30.06 in 10.0 mi SW 4.6 mph - N/A   Scattered Clouds
2:15 AM 23.0 °F 17.0 °F 14.0 °F 68% 30.05 in 10.0 mi WSW 4.6 mph - N/A   Scattered Clouds
2:35 AM 23.0 °F 15.8 °F 14.0 °F 68% 30.05 in 10.0 mi SW 5.8 mph - N/A   Scattered Clouds
2:55 AM 24.8 °F 14.6 °F 15.8 °F 69% 30.04 in 10.0 mi SW 10.4 mph - N/A   Scattered Clouds
3:15 AM 26.6 °F 17.5 °F 15.8 °F 64% 30.02 in 10.0 mi SW 9.2 mph - N/A   Scattered Clouds
3:35 AM 26.6 °F 17.5 °F 15.8 °F 64% 30.01 in 10.0 mi SW 9.2 mph - N/A   Scattered Clouds
3:55 AM 24.8 °F 15.3 °F 15.8 °F 69% 30.01 in 10.0 mi SW 9.2 mph - N/A   Scattered Clouds
4:15 AM 26.6 °F 15.7 °F 15.8 °F 64% 29.99 in 10.0 mi SW 12.7 mph - N/A   Scattered Clouds
4:35 AM 26.6 °F 14.7 °F 15.8 °F 64% 29.98 in 10.0 mi SW 15.0 mph - N/A   Scattered Clouds
4:55 AM 26.6 °F 15.7 °F 15.8 °F 64% 29.98 in 10.0 mi SW 12.7 mph - N/A   Scattered Clouds
5:35 AM 24.8 °F 16.1 °F 15.8 °F 69% 29.97 in 10.0 mi SW 8.1 mph - N/A   Scattered Clouds
5:55 AM 24.8 °F 15.3 °F 15.8 °F 69% 29.96 in 10.0 mi SW 9.2 mph - N/A   Scattered Clouds
6:35 AM 26.6 °F 16.2 °F 17.6 °F 69% 29.96 in 10.0 mi SW 11.5 mph - N/A   Overcast
6:55 AM 28.4 °F 18.5 °F 17.6 °F 64% 29.97 in 10.0 mi SW 11.5 mph - N/A   Overcast
7:15 AM 28.4 °F 20.4 °F 19.4 °F 69% 29.97 in 10.0 mi SW 8.1 mph - N/A   Overcast
7:35 AM 28.4 °F 19.7 °F 19.4 °F 69% 29.98 in 10.0 mi WSW 9.2 mph - N/A   Overcast
7:55 AM 30.2 °F 20.2 °F 19.4 °F 64% 29.98 in 10.0 mi WSW 12.7 mph - N/A   Overcast
8:15 AM 30.2 °F 21.9 °F 19.4 °F 64% 29.98 in 10.0 mi WSW 9.2 mph - N/A   Overcast
8:35 AM 30.2 °F 22.6 °F 19.4 °F 64% 29.99 in 10.0 mi WSW 8.1 mph - N/A   Overcast
8:55 AM 30.2 °F 21.9 °F 19.4 °F 64% 29.99 in 10.0 mi SW 9.2 mph - N/A   Scattered Clouds
9:15 AM 32.0 °F 23.6 °F 21.2 °F 64% 29.98 in 10.0 mi WSW 10.4 mph - N/A   Clear
9:35 AM 33.8 °F 25.8 °F 21.2 °F 60% 29.98 in 10.0 mi WSW 10.4 mph - N/A   Clear
9:55 AM 35.6 °F 27.5 °F 23.0 °F 60% 29.99 in 10.0 mi WSW 11.5 mph - N/A   Clear
10:15 AM 37.4 °F 30.3 °F 23.0 °F 56% 29.99 in 10.0 mi WSW 10.4 mph - N/A   Clear
10:35 AM 39.2 °F 33.0 °F 24.8 °F 56% 29.99 in 10.0 mi West 9.2 mph - N/A   Clear
10:55 AM 39.2 °F 33.6 °F 24.8 °F 56% 29.99 in 10.0 mi West 8.1 mph - N/A   Scattered Clouds
11:15 AM 42.8 °F 38.6 °F 26.6 °F 53% 29.99 in 10.0 mi SW 6.9 mph - N/A   Scattered Clouds
11:35 AM 44.6 °F 39.7 °F 26.6 °F 49% 29.99 in 10.0 mi West 9.2 mph - N/A   Clear
11:55 AM 46.4 °F 42.4 °F 28.4 °F 50% 29.98 in 10.0 mi West 8.1 mph - N/A   Clear
12:15 PM 46.4 °F 42.9 °F 28.4 °F 50% 29.97 in 10.0 mi West 6.9 mph - N/A   Clear
12:35 PM 48.2 °F - 28.4 °F 46% 29.97 in 10.0 mi West 9.2 mph - N/A   Clear
12:55 PM 51.8 °F - 30.2 °F 44% 29.96 in 10.0 mi NW 9.2 mph 16.1 mph N/A   Clear
1:15 PM 51.8 °F - 30.2 °F 44% 29.96 in 10.0 mi West 8.1 mph - N/A   Clear
1:35 PM 53.6 °F - 30.2 °F 41% 29.96 in 10.0 mi NW 8.1 mph 17.3 mph N/A   Clear
2:15 PM 55.4 °F - 32.0 °F 41% 29.96 in 10.0 mi West 12.7 mph - N/A   Clear
2:35 PM 55.4 °F - 32.0 °F 41% 29.96 in 10.0 mi WNW 9.2 mph - N/A   Clear
2:55 PM 55.4 °F - 30.2 °F 38% 29.97 in 10.0 mi WNW 12.7 mph 19.6 mph N/A   Clear
3:15 PM 55.4 °F - 30.2 °F 38% 29.98 in 10.0 mi WNW 10.4 mph - N/A   Clear
3:35 PM 55.4 °F - 30.2 °F 38% 29.99 in 10.0 mi WNW 9.2 mph - N/A   Clear
3:55 PM 55.4 °F - 30.2 °F 38% 30.00 in 10.0 mi WNW 10.4 mph - N/A   Clear
4:15 PM 53.6 °F - 30.2 °F 41% 30.00 in 10.0 mi WNW 6.9 mph - N/A   Clear
4:35 PM 51.8 °F - 30.2 °F 44% 30.01 in 10.0 mi NW 8.1 mph 19.6 mph N/A   Clear
4:55 PM 50.0 °F - 30.2 °F 47% 30.02 in 10.0 mi West 3.5 mph - N/A   Clear
5:15 PM 46.4 °F 43.5 °F 30.2 °F 53% 30.02 in 10.0 mi West 5.8 mph - N/A   Clear
5:35 PM 44.6 °F 43.1 °F 30.2 °F 57% 30.03 in 10.0 mi West 3.5 mph - N/A   Clear
5:55 PM 42.8 °F 41.1 °F 30.2 °F 61% 30.04 in 10.0 mi WNW 3.5 mph - N/A   Scattered Clouds
6:15 PM 42.8 °F 39.3 °F 30.2 °F 61% 30.05 in 10.0 mi WNW 5.8 mph - N/A   Scattered Clouds
6:35 PM 42.8 °F 37.5 °F 30.2 °F 61% 30.07 in 10.0 mi WNW 9.2 mph - N/A   Scattered Clouds
6:55 PM 44.6 °F 39.2 °F 30.2 °F 57% 30.08 in 10.0 mi NW 10.4 mph - N/A   Scattered Clouds
7:15 PM 44.6 °F 40.2 °F 30.2 °F 57% 30.09 in 10.0 mi NW 8.1 mph - N/A   Scattered Clouds
7:35 PM 44.6 °F 39.7 °F 30.2 °F 57% 30.11 in 10.0 mi NW 9.2 mph - N/A   Scattered Clouds
7:55 PM 44.6 °F 39.7 °F 30.2 °F 57% 30.13 in 10.0 mi NNW 9.2 mph - N/A   Scattered Clouds
8:15 PM 42.8 °F 36.6 °F 30.2 °F 61% 30.14 in 10.0 mi NNW 11.5 mph - N/A   Scattered Clouds
8:35 PM 42.8 °F 38.6 °F 30.2 °F 61% 30.14 in 10.0 mi North 6.9 mph - N/A   Scattered Clouds
8:55 PM 41.0 °F 35.2 °F 30.2 °F 65% 30.15 in 10.0 mi NNW 9.2 mph - N/A   Scattered Clouds
9:15 PM 41.0 °F 37.1 °F 30.2 °F 65% 30.16 in 10.0 mi North 5.8 mph - N/A   Mostly Cloudy
9:35 PM 39.2 °F 35.9 °F 30.2 °F 70% 30.17 in 10.0 mi North 4.6 mph - N/A   Overcast
9:55 PM 37.4 °F 34.9 °F 30.2 °F 75% 30.17 in 10.0 mi NNE 3.5 mph - N/A   Mostly Cloudy
10:15 PM 37.4 °F - 30.2 °F 75% 30.19 in 10.0 mi Calm Calm - N/A   Mostly Cloudy
10:35 PM 37.4 °F - 30.2 °F 75% 30.19 in 10.0 mi Calm Calm - N/A   Mostly Cloudy
10:55 PM 35.6 °F 31.7 °F 28.4 °F 75% 30.20 in 10.0 mi North 4.6 mph - N/A   Scattered Clouds
11:15 PM 35.6 °F 30.7 °F 28.4 °F 75% 30.21 in 10.0 mi North 5.8 mph - N/A   Scattered Clouds
11:35 PM 37.4 °F 30.3 °F 30.2 °F 75% 30.22 in 10.0 mi North 10.4 mph - N/A   Scattered Clouds
11:55 PM 35.6 °F 29.2 °F 28.4 °F 75% 30.24 in 10.0 mi North 8.1 mph - N/A   Scattered Clouds